Location: Ayau
(45.7333°N, 1.6333°E)
Time: 21:04:29
(UTC+00:00)

Daily predictions for brighter satellites

Satellite Brightness Start Highest point End
(mag) Time Altitude Azimuth Time Altitude Azimuth Time Altitude Azimuth
ATLAS 2AS CENTAUR R/B 4.0 16:36:29 10° W 16:43:39 37° NW 16:50:37 10° NNE
Cosmos-2242 4.0 16:40:54 10° SSW 16:45:05 49° WNW 16:49:15 10° N
ATLAS CENTAUR R/B 4.3 16:35:05 10° SSW 16:45:46 36° SE 16:50:40 10° ENE
SJ 16-02 1.3 16:45:50 10° NNW 16:50:13 73° ENE 16:54:35 10° SSE
Okean 3 Rocket 3.6 16:49:11 10° N 16:53:44 87° ENE 16:58:13 10° S
Cosmos 1500 Rocket 4.4 16:50:29 10° NNE 16:54:23 28° ENE 16:58:12 10° SE
Cosmos 2034 Rocket 4.3 16:49:00 10° SSE 16:54:46 44° E 17:00:33 10° NNE
CORIOLIS 4.2 16:54:25 10° SSE 16:59:40 56° ENE 17:04:57 10° N
USA 306 3.4 16:55:49 10° WSW 16:59:58 51° NNW 17:04:00 11° NE
NOSS 2-1 (C) 3.6 16:57:16 10° WSW 17:00:26 47° NW 17:03:39 10° NNE
NOSS 3-1 (A) 4.3 16:53:57 10° NNW 17:00:55 46° NE 17:09:03 10° ESE
CZ-2D R/B 4.1 16:57:51 10° SE 17:01:12 29° ENE 17:04:33 10° N
Spot 1 4.5 16:57:56 10° N 17:02:30 76° WNW 17:07:19 10° SSW
USA 234 3.5 16:57:02 10° SE 17:03:35 75° SW 17:10:08 10° NW
NOSS 3-1 (C) 4.1 16:56:55 10° NW 17:04:16 66° NE 17:12:54 10° SE
Aureole 3 4.5 16:59:37 10° S 17:05:02 86° W 17:11:51 10° N
SL-08 R/B 3.9 17:01:18 10° N 17:05:59 58° WNW 17:10:34 10° SSW
Iridium 2 3.9 17:02:26 10° N 17:06:12 73° W 17:09:55 10° S
Cosmos 1842 Rocket 3.7 17:02:06 10° S 17:06:27 57° E 17:10:51 10° NNE
Cosmos 1833 Rocket 3.7 17:03:12 10° SSE 17:07:42 25° ESE 17:11:51 12° NE
NOSS 2-1 (D) 4.0 17:06:43 10° WSW 17:09:46 38° NW 17:12:55 10° NNE
Meteor 2-2 Rocket 4.4 17:03:54 10° S 17:09:56 86° ESE 17:15:59 10° NNE
PSLV R/B 3.9 17:09:33 10° SE 17:13:03 45° ENE 17:16:37 10° N
CZ-4B R/B 3.7 17:08:40 10° SE 17:13:35 36° ENE 17:18:27 10° N
Sich 1 4.1 17:12:59 10° NNE 17:16:22 22° ENE 17:19:45 10° ESE
USA 307 3.6 17:12:20 10° W 17:16:28 46° NNW 17:19:51 15° NE
Cosmos 1939 Rocket 3.0 17:12:30 10° SSE 17:16:38 86° WSW 17:20:47 10° NNW
ERBS 2.5 17:13:53 10° WSW 17:17:03 61° NW 17:19:27 16° NE
SMAP 3.0 17:12:45 10° SSE 17:17:24 88° E 17:22:06 10° NNW
ARGOS 3.8 17:13:12 10° SE 17:17:54 31° ENE 17:22:36 10° N
Cosmos 1606 2.9 17:15:07 10° SSW 17:18:51 71° W 17:22:38 10° N
H-2A R/B 2.2 17:14:23 10° SE 17:19:25 48° ENE 17:24:20 10° N
Cosmos 1898 Rocket 4.0 17:15:04 10° N 17:19:57 37° ENE 17:24:46 10° SE
MOS 1-B Rocket 4.3 17:16:24 10° NNE 17:21:54 43° E 17:27:57 10° S
COSMOS 2455 4.2 17:19:57 10° SSE 17:24:00 19° ESE 17:25:52 17° E
ATLAS CENTAUR R/B 3.1 17:21:24 10° WSW 17:25:02 29° NW 17:28:57 10° NNE
Cosmos 468 Rocket 4.4 17:21:16 10° S 17:26:03 41° ESE 17:30:21 13° NE
Cosmos 2221 2.6 17:21:51 10° SSW 17:26:06 76° W 17:30:24 10° N
Cosmos 44 3.1 17:23:28 10° NNW 17:28:18 73° NE 17:32:49 10° SE
COSMO-SKYMED 1 3.2 17:29:13 13° NE 17:32:40 35° E 17:36:39 10° SSE
Cosmos 540 Rocket 4.2 17:30:27 10° SSE 17:34:49 30° E 17:37:03 21° ENE
Cosmos 2026 Rocket 4.1 17:28:54 10° N 17:34:52 48° ENE 17:40:43 10° SSE
deb Chang Zheng 4 3.8 17:32:02 10° SE 17:36:08 45° ENE 17:40:16 10° N
Cosmos 2195 Rocket 4.5 17:30:59 10° N 17:37:02 59° ENE 17:43:07 10° SSE
USA 308 3.9 17:34:51 10° W 17:38:50 37° NNW 17:41:12 20° NE
CZ-2C R/B 2.9 17:33:58 10° NNE 17:38:57 44° E 17:43:52 10° S
Okean O Rocket 1.9 17:36:13 10° SE 17:40:24 42° ENE 17:44:37 10° N
Cosmos 1500 4.1 17:37:31 10° NNE 17:44:45 - SE 17:40:06 26° NE
Meteor 1-25 Rocket 4.1 17:38:27 10° N 17:44:01 70° ENE 17:49:35 10° SSE
ISS -2.5 17:41:08 10° WNW 17:44:09 29° N 17:44:55 26° NNE
CZ-4C R/B 3.6 17:40:10 10° NNW 17:46:18 33° NE 17:49:48 23° ENE
Meteor 2-21 4.5 17:40:26 10° N 17:46:25 53° ENE 17:52:18 10° SSE
YAOGAN 1 4.2 17:50:22 19° NNE 17:50:22 19° NNE 17:52:00 10° N
MOS 1-B 4.4 17:46:31 10° SSE 17:52:17 86° WSW 17:58:07 10° NNW
CZ-4 R/B 3.8 18:00:22 11° N 18:00:22 11° N 18:00:32 10° N
Cosmos 2084 3.5 17:53:39 10° NNW 17:57:54 60° NE 17:59:42 33° ESE
Cosmos 2322 Rocket 4.2 17:56:41 10° NNE 17:57:36 11° NNE 17:57:36 11° NNE
Cosmos 2369 4.0 17:53:44 10° NNW 17:59:16 46° ENE 18:02:24 24° ESE
GEOS 3 Rocket 3.5 17:56:54 15° SE 18:01:16 68° NE 18:06:26 10° NW
Cosmos 1782 2.8 17:57:37 10° S 18:01:32 56° E 18:02:36 41° NE
Cosmos 1743 Rocket 4.0 17:57:38 10° NNW 18:01:55 62° W 18:06:11 10° S
Cosmos 1697 Rocket 2.5 18:01:55 10° NNW 18:07:34 76° ENE 18:13:10 10° SSE
Cosmos 1763 Rocket 3.4 18:02:33 10° SSW 18:07:36 83° WNW 18:11:17 19° NNE
Cosmos 1937 Rocket 3.4 18:02:37 10° NNW 18:07:57 66° ENE 18:13:13 10° SSE
USA 305 4.1 18:04:40 10° WNW 18:08:25 30° N 18:09:22 27° NNE
Cosmos 841 Rocket 3.7 18:04:22 10° S 18:09:17 46° ESE 18:10:09 42° ENE
Cosmos 1980 Rocket 2.5 18:04:05 10° NNW 18:09:31 43° ENE 18:10:40 39° E
USA 267 4.1 18:08:54 22° NE 18:12:33 39° NNW 18:18:31 10° W
Cosmos 1340 Rocket 4.4 18:09:10 10° NNW 18:12:55 37° W 18:16:41 10° SSW
Cosmos 1812 4.4 18:09:36 10° SSE 18:10:59 20° SSE 18:10:59 20° SSE
SL-16 R/B 4.0 18:09:41 10° N 18:11:40 15° NNE 18:11:40 15° NNE
Meteor 2-14 Rocket 4.3 18:08:13 10° N 18:14:22 86° E 18:20:27 10° S
Cosmos 2082 Rocket 2.5 18:12:55 10° S 18:18:16 43° ESE 18:18:33 43° E
USA 276 3.0 18:17:40 10° WNW 18:19:58 45° WNW 18:19:58 45° WNW
SKYMED 2 3.7 18:17:49 20° N 18:20:50 73° WNW 18:25:08 10° SSW
Lacrosse 5 rocket 3.3 18:19:01 10° NNW 18:20:53 17° N 18:20:53 17° N
Cosmos 1151 Rocket 4.1 18:18:28 10° S 18:20:53 31° SSE 18:20:53 31° SSE
Cosmos 1602 4.4 18:19:06 10° NNW 18:22:52 54° W 18:26:38 10° S
Cosmos 1092 Rocket 4.4 18:16:53 10° NNW 18:23:10 64° W 18:29:24 10° S
COSMOS 2406 3.1 18:17:56 10° SSW 18:23:41 78° ESE 18:26:02 38° NE
Cosmos 1933 4.2 18:20:13 10° SSW 18:24:09 50° WNW 18:27:10 16° N
Cosmos 2278 4.1 18:19:53 10° NNW 18:24:48 41° NE 18:24:48 41° NE
USA 229 DEB 4.0 18:21:29 10° NW 18:28:52 80° SW 18:36:41 10° SSE
USA 229 4.0 18:21:35 10° NW 18:28:58 81° SW 18:36:47 10° SSE
Feng Yun 1-1 Rocket 4.3 18:24:22 10° SSE 18:30:17 81° ENE 18:36:13 10° NNW
Meteor 2-21 Rocket 4.3 18:24:29 10° N 18:30:39 86° E 18:36:44 10° S
Cosmos 372 Rocket 3.8 18:29:38 10° NNW 18:34:52 72° ENE 18:35:15 69° E
Cosmos 2142 Rocket 4.3 18:30:54 10° S 18:37:02 84° E 18:43:16 10° N
Meteor 2-8 Rocket 4.4 18:32:03 10° S 18:38:03 60° E 18:38:41 57° ENE
USA 306 4.5 18:36:53 10° WNW 18:40:00 26° NNW 18:40:00 26° NNW
Cosmos 1833 Rocket 3.3 18:45:48 10° SW 18:51:16 53° WNW 18:53:35 32° N
Cosmos 2279 Rocket 4.0 18:48:58 10° SSW 18:55:11 77° W 19:01:20 10° N
Meteor 1-14 Rocket 4.5 18:52:13 10° NNW 18:57:58 70° W 19:03:49 10° S
ARGOS 4.4 18:52:56 10° SSW 18:58:01 41° W 19:03:08 10° NNW
H-2A R/B 4.3 18:54:54 10° SW 18:59:03 24° W 19:03:10 10° NW
NOSS 2-2 (D) 4.3 18:57:22 10° NW 19:02:39 89° WSW 19:02:49 86° SSE
COSMOS 2455 2.8 19:03:12 10° SW 19:09:04 78° WNW 19:09:04 78° WNW
Cosmos 1655 Rocket 4.4 19:05:12 10° N 19:09:57 52° N 19:09:57 52° N
Okean O Rocket 4.1 19:13:33 10° SW 19:16:55 21° W 19:20:20 10° NW
ATLAS CENTAUR R/B 3.5 19:10:11 10° WSW 19:16:49 40° NW 19:16:49 40° NW
CZ-2C R/B 4.4 19:14:41 10° N 19:19:02 27° WNW 19:23:19 10° WSW
CZ-4C R/B 3.0 19:28:22 10° NW 19:35:01 77° NW 19:35:01 77° NW
BREEZE-M DEB (TANK) 4.4 19:13:22 10° SW 19:37:07 72° SSE 19:37:07 72° SSE
Cosmos 1980 Rocket 3.8 19:48:23 10° NW 19:52:30 30° W 19:52:30 30° W
Cosmos 2082 Rocket 4.0 19:57:20 10° WSW 20:00:28 26° W 20:00:28 26° W
